Location: Kellogg
(38.0159°N, 90.0546°W)
Time: 18:09:27
(UTC+00:00)

S-56A Canister/Altair - Pass Details

Date: 21 September 2024
Orbit: 636 x 2487 km, 38.9° (Epoch: 04 October)

Event Time Altitude Azimuth Distance (km) Brightness Sun altitude
Rises 21:57:06 0° 233° (SW) 2,927 11.8 22.6°
Reaches altitude 10° 21:59:24 10° 227° (SW) 2,011 11.0 22.2°
Maximum altitude 22:03:38 45° 154° (SSE) 915 8.1 21.4°
Drops below altitude 10° 22:08:35 10° 82° (E) 2,352 9.5 20.4°
Sets 22:11:29 0° 76° (ENE) 3,493 10.3 19.9°
